[[{"header":{"parameterUnit":"m.s-1","parameterCategory":1,"la1":30.2991,"la2":30.254,"lo1":-89.0895,"lo2":-89.0444,"dy":0.0017,"dx":0.0017,"nx":28,"ny":28,"refTime":"2024-12-13T03:00:00:Z","depth":0,"parameterNumber":2,"parameterNumberName":"U-component_of_WINDS"},"data":[0,0,0,0,0,0,0,0,0,0,0,0,0,0,0,0,0,0,0,0,0,0,0,0,0,0,0,0,0,0,0,0,0,0,0,0,0,0,0,0,0,0,0,0,0,0,0,0,0,0,0,0,0,0,0,0,0,0,-6.0187,-6.0187,0,-6.0182,-6.0182,-6.0182,-6.0019,-6.0014,-6.001,-6.0006,-6.0002,-6.0006,-6.001,0,0,0,0,0,0,0,0,0,0,0,0,0,-6.0057,-6.0061,-6.0187,-6.0187,-6.0187,-6.0182,-6.0182,-6.0182,-6.0019,-6.0014,-6.0009,-6.0004,-6.0001,-6.0006,-6.001,0,0,0,0,0,0,0,0,0,0,0,0,0,-6.0089,-6.0062,-6.0187,-6.0105,-6.0098,-6.0182,-6.0182,-6.0182,-6.002,-6.0014,-6.0008,-6.0002,-6.0,-6.0005,-6.0011,-6.0174,0,0,-6.0029,-6.0031,0,0,0,0,0,0,0,0,-6.0088,-6.0094,-6.0118,-6.0111,-6.0103,-6.0094,-6.0135,-6.0179,-6.0022,-6.005,-6.0006,-5.9999,-6.0038,-6.004,-6.0053,-6.0173,-6.0173,-6.0029,-6.0033,-6.0035,-6.0037,0,0,0,0,0,0,0,-6.0086,-6.0094,-6.0185,-6.0118,-6.0109,-6.0069,-6.0067,-6.0142,-6.008,-6.0047,-6.0035,-6.0037,-6.0033,-6.0048,-6.0052,-6.0173,-6.0029,-6.0034,-6.0038,-6.004,-6.0426,-6.0432,0,0,0,0,0,0,-6.0095,-6.0093,-6.0185,-6.0185,-6.008,-6.0077,-6.0074,-6.0104,-6.0079,-6.0069,-6.0042,-6.0029,-6.0042,-6.0046,-6.0051,-6.0239,-6.0035,-6.004,-6.0044,-6.0419,-6.0427,-6.0434,0,0,0,0,0,0,-6.0093,-6.0105,-6.0186,-6.0136,-6.0143,-6.0086,-6.0121,-6.0107,-6.0122,-6.0075,-6.0063,-6.0069,-6.0037,-6.0043,-6.0144,-6.0237,-6.0043,-6.0048,-6.0411,-6.0421,-6.0431,-6.0617,0,0,0,0,0,0,-6.009,-6.0105,-6.0166,-6.0138,-6.0146,-6.0279,-6.0126,-6.0111,-6.0132,-6.0115,-6.0097,-6.0088,-6.0032,-6.0136,-6.015,-6.0241,-6.0053,-6.0402,-6.0415,-6.0427,-6.0603,-6.0633,-6.0658,0,0,0,0,0,-6.0085,-6.0219,-6.017,-6.0182,-6.0221,-6.0284,-6.0289,-6.0222,-6.014,-6.0201,-6.0171,-6.0088,-6.0225,-6.0148,-6.0162,-6.0257,-6.0396,-6.0412,-6.0426,-6.059,-6.0627,-6.0658,0,0,0,0,0,0,-6.0259,-6.0214,-6.0159,-6.0287,-6.0291,-6.0257,-6.0331,-6.0263,-6.029,-6.0273,-6.0189,-6.0186,-6.03,-6.0288,-6.0204,-6.0412,-6.0296,-6.0315,-6.0416,-6.045,-6.0477,-6.0477,-6.0058,0,0,0,0,0,-6.0312,-6.0367,-6.0325,-6.0442,-6.0447,-6.039,-6.0414,-6.0362,-6.0363,-6.0364,-6.034,-6.0345,-6.0388,-6.0418,-6.0456,-6.06,-6.0594,-6.0672,-6.07,-6.0723,-6.074,-6.0815,-6.0849,-6.0484,-6.0484,-6.0484,0,0,-6.0423,-6.0405,-6.0445,-6.0477,-6.0473,-6.0532,-6.0392,-6.046,-6.0502,-6.0374,-6.0467,-6.0451,-6.045,-6.0573,-6.0626,-6.0567,-6.084,-6.0743,-6.0762,-6.0766,-6.0834,-6.0869,-6.09,-6.0495,-6.0493,-6.0491,0,0,-6.0654,-6.0646,-6.0743,-6.0742,-6.0739,-6.07,-6.0723,-6.07,-6.0684,-6.0776,-6.0681,-6.0731,-6.0808,-6.081,-6.0822,-6.1055,-6.098,-6.107,-6.1215,-6.1289,-6.1317,-6.1342,-6.1424,-6.1455,-6.1087,-6.1087,-6.1088,0,-6.0792,-6.0876,-6.0801,-6.0875,-6.0892,-6.0779,-6.0876,-6.0879,-6.0889,-6.0903,-6.0836,-6.093,-6.0921,-6.1043,-6.11,-6.1114,-6.1138,-6.1071,-6.1319,-6.1344,-6.1366,-6.1443,-6.1474,-6.1098,-6.1097,-6.1096,-6.1095,0,-6.1045,-6.1105,-6.1183,-6.1195,-6.122,-6.1306,-6.1245,-6.128,-6.1226,-6.1194,-6.129,-6.1276,-6.1308,-6.1333,-6.1282,-6.1448,-6.1411,-6.1334,-6.1215,-6.1413,-6.1484,-6.1513,-6.1114,-6.111,-6.1107,-6.1104,0,0,-6.1384,-6.1353,-6.1383,-6.1387,-6.1375,-6.142,-6.1501,-6.1531,-6.1563,-6.1574,-6.1639,-6.1707,-6.1635,-6.1648,-6.1596,-6.1661,-6.1845,-6.1575,-6.1573,-6.1625,-6.2027,-6.2085,-6.212,-6.1796,-6.1801,-6.1806,-6.2027,0,-6.1606,-6.1741,-6.1677,-6.1819,-6.1873,-6.1767,-6.1837,-6.1838,-6.181,-6.1852,-6.1822,-6.1871,-6.1773,-6.178,-6.184,-6.181,-6.1925,-6.1794,-6.1855,-6.1859,-6.1858,-6.2158,-6.2219,-6.2428,-6.2054,-6.2059,-6.2062,0,-6.1883,-6.1905,-6.2053,-6.2031,-6.2051,-6.2115,-6.2138,-6.218,-6.2179,-6.2154,-6.217,-6.2103,-6.218,-6.2064,-6.2169,-6.2081,-6.2103,-6.2093,-6.2099,-6.2101,-6.1972,-6.2167,-6.2493,-6.2524,-6.2106,-6.2102,-6.2099,0,-6.2114,-6.2181,-6.2277,-6.2284,-6.2261,-6.2308,-6.2301,-6.2293,-6.2316,-6.2337,-6.2351,-6.2381,-6.2397,-6.2422,-6.2365,-6.2285,-6.2478,-6.2357,-6.246,-6.2461,-6.2504,-6.2502,-6.2837,-6.2521,-6.2521,-6.252,-6.2519,0,-6.2368,-6.2463,-6.2381,-6.244,-6.2543,-6.2469,-6.2573,-6.2554,-6.2548,-6.2602,-6.2512,-6.2565,-6.2487,-6.2532,-6.2488,-6.2582,-6.259,-6.2572,-6.2559,-6.258,-6.2582,-6.2591,-6.2575,-6.2528,-6.2526,-6.2525,-6.2523,0,-6.2643,-6.2592,-6.269,-6.266,-6.2655,-6.2732,-6.2706,-6.276,-6.2727,-6.2797,-6.2809,-6.2757,-6.2806,-6.2751,-6.2796,-6.2766,-6.2893,-6.2859,-6.2893,-6.2883,-6.2988,-6.2979,-6.334,-6.3384,-6.3042,-6.3045,-6.3048,0,-6.2808,-6.2878,-6.2855,-6.2885,-6.2883,-6.2932,-6.2954,-6.2884,-6.2912,-6.2916,-6.2969,-6.301,-6.3039,-6.3122,-6.3088,-6.3122,-6.3087,-6.3212,-6.3092,-6.311,-6.3087,-6.3083,-6.309,-6.3236,-6.324,-6.3243,-6.3246,0,-6.3105,-6.3076,-6.3112,-6.314,-6.3169,-6.3187,-6.3199,-6.3229,-6.3156,-6.3191,-6.3239,-6.3262,-6.3307,-6.3349,-6.3373,-6.3365,-6.3294,-6.3285,-6.331,-6.333,-6.3347,-6.3338,-6.2958,-6.3276,-6.3273,-6.3271,-6.3269,-6.3268,-6.3328,-6.3385,-6.3378,-6.3421,-6.3422,-6.3436,-6.3484,-6.3457,-6.3496,-6.3527,-6.3484,-6.3544,-6.3541,-6.3566,-6.3567,-6.3613,-6.3559,-6.3597,-6.3605,-6.3615,-6.363,-6.3341,-6.3617,-6.3616,-6.3615,-6.3615,-6.3614,0,-6.3619,-6.361,-6.365,-6.3669,-6.3703,-6.3633,-6.3642,-6.3675,-6.3729,-6.3732,-6.3762,-6.3818,-6.3858,-6.3828,-6.3861,-6.3904,-6.3872,-6.3915,-6.391,-6.391,-6.3677,-6.3651,-6.394,-6.394,-6.394,-6.394,-6.394,-6.394,-6.3774,-6.3867,-6.3838,-6.393,-6.3919,-6.3977,-6.3988,-6.4,-6.4002,-6.4068,-6.41,-6.408,-6.407,-6.4102,-6.4136,-6.4126,-6.4142,-6.4197,-6.4176,-6.3958,-6.3926,-6.3896,-6.3871,-6.4202,-6.4202,-6.4404,-6.4406,-6.4407]},{"header":{"parameterUnit":"m.s-1","parameterCategory":1,"la1":30.2991,"la2":30.254,"lo1":-89.0895,"lo2":-89.0444,"dy":0.0017,"dx":0.0017,"nx":28,"ny":28,"refTime":"2024-12-13T03:00:00:Z","depth":0,"parameterNumber":3,"parameterNumberName":"V-component_of_WINDS"},"data":[0,0,0,0,0,0,0,0,0,0,0,0,0,0,0,0,0,0,0,0,0,0,0,0,0,0,0,0,0,0,0,0,0,0,0,0,0,0,0,0,0,0,0,0,0,0,0,0,0,0,0,0,0,0,0,0,0,0,-1.1959,-1.1959,0,-1.1902,-1.1901,-1.1901,-1.1889,-1.189,-1.189,-1.1891,-1.183,-1.1828,-1.1826,0,0,0,0,0,0,0,0,0,0,0,0,0,-1.2054,-1.2052,-1.1959,-1.1959,-1.1958,-1.1902,-1.1901,-1.19,-1.1889,-1.189,-1.189,-1.1891,-1.183,-1.1828,-1.1825,0,0,0,0,0,0,0,0,0,0,0,0,0,-1.2006,-1.2052,-1.1959,-1.1946,-1.1944,-1.1902,-1.1901,-1.19,-1.1889,-1.189,-1.1891,-1.1891,-1.1831,-1.1828,-1.1825,-1.1792,0,0,-1.1816,-1.1814,0,0,0,0,0,0,0,0,-1.2009,-1.2003,-1.1948,-1.1946,-1.1944,-1.1904,-1.1912,-1.1864,-1.1889,-1.191,-1.1891,-1.1892,-1.1853,-1.1849,-1.1836,-1.179,-1.1787,-1.1815,-1.1813,-1.1812,-1.1811,0,0,0,0,0,0,0,-1.2012,-1.2005,-1.1937,-1.1948,-1.1945,-1.1941,-1.1935,-1.1903,-1.1878,-1.1908,-1.1907,-1.1901,-1.1852,-1.1839,-1.1835,-1.1786,-1.1815,-1.1813,-1.1811,-1.181,-1.1705,-1.1704,0,0,0,0,0,0,-1.2019,-1.2008,-1.1938,-1.1935,-1.1979,-1.1938,-1.1932,-1.1916,-1.1879,-1.1874,-1.19,-1.19,-1.1844,-1.1838,-1.1833,-1.1789,-1.1812,-1.1809,-1.1808,-1.1706,-1.1704,-1.1703,0,0,0,0,0,0,-1.2021,-1.2012,-1.1941,-1.1971,-1.1962,-1.1936,-1.1918,-1.1914,-1.1901,-1.1873,-1.1868,-1.1891,-1.1845,-1.1837,-1.1802,-1.1787,-1.1808,-1.1805,-1.1707,-1.1705,-1.1704,-1.1703,0,0,0,0,0,0,-1.2023,-1.2013,-1.2002,-1.1971,-1.196,-1.1912,-1.1918,-1.1913,-1.1896,-1.1896,-1.1863,-1.1859,-1.1844,-1.1806,-1.1799,-1.1783,-1.1803,-1.1708,-1.1706,-1.1704,-1.1704,-1.1702,-1.17,0,0,0,0,0,-1.2027,-1.2005,-1.2002,-1.1993,-1.1946,-1.1912,-1.1905,-1.189,-1.1895,-1.1882,-1.1863,-1.186,-1.179,-1.1803,-1.1794,-1.1777,-1.1709,-1.1707,-1.1705,-1.1705,-1.1702,-1.17,0,0,0,0,0,0,-1.2035,-1.2,-1.1997,-1.1964,-1.1941,-1.191,-1.1894,-1.1888,-1.1862,-1.1863,-1.1844,-1.1837,-1.1802,-1.1786,-1.1801,-1.1741,-1.1749,-1.1745,-1.1753,-1.175,-1.1747,-1.1751,-1.18,0,0,0,0,0,-1.2033,-1.2009,-1.198,-1.1954,-1.1942,-1.192,-1.1904,-1.1894,-1.1869,-1.1859,-1.1838,-1.1813,-1.1784,-1.1766,-1.1739,-1.1702,-1.1693,-1.1686,-1.1683,-1.1682,-1.1678,-1.1653,-1.1648,-1.1697,-1.1697,-1.1697,0,0,-1.2028,-1.2006,-1.1993,-1.1955,-1.1935,-1.1909,-1.1912,-1.1885,-1.1864,-1.1855,-1.182,-1.1803,-1.1773,-1.1735,-1.1718,-1.1721,-1.1662,-1.1679,-1.1678,-1.1675,-1.165,-1.1646,-1.1641,-1.1695,-1.1695,-1.1696,0,0,-1.2006,-1.1989,-1.1963,-1.1943,-1.1914,-1.1899,-1.1892,-1.1861,-1.185,-1.1814,-1.1805,-1.178,-1.1733,-1.1711,-1.1694,-1.1659,-1.1653,-1.1651,-1.1638,-1.1614,-1.161,-1.1607,-1.1591,-1.1586,-1.1648,-1.1648,-1.1648,0,-1.2004,-1.1966,-1.1951,-1.1923,-1.1905,-1.1895,-1.1867,-1.1848,-1.1811,-1.1798,-1.1803,-1.1741,-1.172,-1.1675,-1.1667,-1.1654,-1.1644,-1.1654,-1.1612,-1.1608,-1.1605,-1.159,-1.1584,-1.1647,-1.1647,-1.1647,-1.1647,0,-1.1963,-1.1936,-1.1919,-1.1883,-1.1863,-1.1836,-1.1814,-1.1795,-1.1786,-1.1769,-1.1731,-1.1706,-1.1671,-1.166,-1.1652,-1.1613,-1.1615,-1.1616,-1.1624,-1.16,-1.1585,-1.158,-1.1647,-1.1647,-1.1647,-1.1647,0,0,-1.1946,-1.19,-1.1894,-1.1875,-1.184,-1.1818,-1.1789,-1.1755,-1.1738,-1.1712,-1.1685,-1.1644,-1.1643,-1.1623,-1.1611,-1.1591,-1.156,-1.1593,-1.1592,-1.1585,-1.1511,-1.1509,-1.1503,-1.1556,-1.1555,-1.1554,-1.1513,0,-1.1918,-1.1867,-1.185,-1.1806,-1.1779,-1.1767,-1.1741,-1.1715,-1.1698,-1.1671,-1.1651,-1.1621,-1.1624,-1.1612,-1.159,-1.1569,-1.1545,-1.1572,-1.1528,-1.1527,-1.1534,-1.1496,-1.1495,-1.1457,-1.1507,-1.1506,-1.1506,0,-1.188,-1.1852,-1.1805,-1.177,-1.1758,-1.1735,-1.17,-1.1675,-1.1645,-1.1633,-1.1609,-1.1598,-1.1564,-1.1574,-1.1524,-1.1543,-1.1524,-1.151,-1.1508,-1.1502,-1.1514,-1.1486,-1.1445,-1.1438,-1.1497,-1.1498,-1.1498,0,-1.1869,-1.182,-1.1784,-1.1769,-1.1728,-1.1711,-1.1693,-1.1663,-1.1643,-1.1612,-1.1598,-1.1564,-1.1545,-1.1517,-1.1496,-1.1506,-1.1447,-1.1457,-1.1434,-1.1434,-1.1421,-1.1422,-1.1374,-1.1413,-1.1413,-1.1413,-1.1413,0,-1.1839,-1.181,-1.1778,-1.1756,-1.1722,-1.1702,-1.1668,-1.1649,-1.1621,-1.1593,-1.1581,-1.1555,-1.153,-1.1499,-1.1482,-1.1441,-1.1434,-1.1421,-1.1417,-1.1421,-1.1422,-1.1407,-1.1408,-1.1412,-1.1412,-1.1412,-1.1413,0,-1.1821,-1.1799,-1.1759,-1.1722,-1.1712,-1.1688,-1.1655,-1.1632,-1.1613,-1.1578,-1.1568,-1.1538,-1.1501,-1.1477,-1.1431,-1.1419,-1.1373,-1.1371,-1.1383,-1.1381,-1.1359,-1.136,-1.1297,-1.1286,-1.1335,-1.1335,-1.1334,0,-1.1803,-1.178,-1.174,-1.172,-1.1701,-1.167,-1.1649,-1.1627,-1.1604,-1.1565,-1.1545,-1.1507,-1.1476,-1.1416,-1.1389,-1.1352,-1.1347,-1.1327,-1.1341,-1.1345,-1.1342,-1.1343,-1.1339,-1.1324,-1.1324,-1.1324,-1.1323,0,-1.1771,-1.176,-1.173,-1.1695,-1.1669,-1.164,-1.1611,-1.1595,-1.1568,-1.1543,-1.1504,-1.148,-1.143,-1.1391,-1.1351,-1.133,-1.132,-1.1319,-1.1311,-1.1315,-1.1322,-1.1314,-1.1374,-1.132,-1.1321,-1.1321,-1.1321,-1.1321,-1.1751,-1.1728,-1.1695,-1.1661,-1.1636,-1.1608,-1.1583,-1.156,-1.1528,-1.1486,-1.1475,-1.1433,-1.1398,-1.1343,-1.1321,-1.1286,-1.1289,-1.1279,-1.1275,-1.1272,-1.127,-1.1329,-1.1279,-1.1279,-1.1279,-1.1279,-1.1279,0,-1.1716,-1.1694,-1.1662,-1.1621,-1.1592,-1.1587,-1.1553,-1.1529,-1.1493,-1.1462,-1.143,-1.1383,-1.1344,-1.1313,-1.1272,-1.125,-1.1244,-1.1239,-1.124,-1.1234,-1.1272,-1.1282,-1.1244,-1.1244,-1.1244,-1.1244,-1.1244,-1.1244,-1.1695,-1.1655,-1.164,-1.1586,-1.1563,-1.1522,-1.1503,-1.1476,-1.145,-1.1398,-1.1366,-1.1345,-1.1312,-1.1268,-1.1231,-1.1222,-1.1206,-1.1202,-1.1192,-1.1228,-1.1232,-1.1236,-1.1244,-1.1199,-1.1199,-1.1156,-1.1156,-1.1155]}]]